Weather History for KTOL - June, 2013

Change the Weather History Date:

Friday, June 14, 2013

  Actual Average Record
Temperature  
Mean Temperature 67 °F 69 °F  
Max Temperature 77 °F 81 °F 96 °F (1988)
Min Temperature 57 °F 58 °F 42 °F (1978)
Degree Days  
Heating Degree Days 0 1  
Month to date heating degree days 29 27  
Since 1 June heating degree days 29 27  
Since 1 July heating degree days 6163 6137  
Cooling Degree Days 2 5  
Month to date cooling degree days 41 57  
Year to date cooling degree days 135 110  
Since 1 June cooling degree days 41 57  
Growing Degree Days 18 (Base 50)    
Moisture  
Dew Point 55 °F    
Average Humidity 64    
Maximum Humidity 90    
Minimum Humidity 38    
Precipitation  
Precipitation 0.00 in 0.12 in 1.09 in (1970)
Month to date precipitation 3.69 1.74  
Year to date precipitation 18.19 15.11  
Snow  
Snow 0.00 in 0.00 in - ()
Month to date snowfall 0.0 0.0  
Since 1 June snowfall 0.0 0.0  
Since 1 July snowfall 22.4 37.6  
Snow Depth 0.00 in    
Sea Level Pressure  
Sea Level Pressure 30.01 in    
Wind  
Wind Speed 6 mph (NNW)    
Max Wind Speed 15 mph    
Max Gust Speed 21 mph    
Visibility 10 miles    
Events      
T = Trace of Precipitation, MM = Missing Value Source: NWS Daily Summary

Daily Weather History Graph

Daily Weather History Graph

Search for Another Location

Airport or City:

Trip Planner

Search our weather history database for the weather conditions in past years. The results will help you decide how hot, cold, wet, or windy it might be!

Date:

Astronomy

Jun. 14, 2013 Rise Set
Actual Time 6:00 AM EDT 9:10 PM EDT
Civil Twilight 5:26 AM EDT 9:44 PM EDT
Nautical Twilight 4:42 AM EDT 10:28 PM EDT
Astronomical Twilight 3:50 AM EDT 11:20 PM EDT
Moon 11:38 AM EDT (6/14) 12:12 AM EDT (6/14)
Length of Visible Light 16h 18m
Length of Day
15h 10m
Waxing Crescent, 30% of the Moon is Illuminated
Jun 14
Waxing Crescent
Jun 16
First Quarter
Jun 23
Full
Jun 30
Last Quarter
Jul 8
New

Hourly Weather History & Observations

Time (EDT) Temp. Dew Point Humidity Pressure Visibility Wind Dir Wind Speed Gust Speed Precip Events Conditions
12:52 AM 64.0 °F 57.9 °F 80% 29.93 in 10.0 mi NNW 6.9 mph - N/A   Overcast
1:52 AM 64.9 °F 57.9 °F 78% 29.93 in 10.0 mi North 4.6 mph - N/A   Overcast
2:52 AM 64.0 °F 57.0 °F 78% 29.93 in 10.0 mi North 6.9 mph - N/A   Partly Cloudy
3:52 AM 62.1 °F 55.0 °F 78% 29.93 in 10.0 mi North 9.2 mph - N/A   Clear
4:52 AM 61.0 °F 55.9 °F 83% 29.95 in 10.0 mi North 5.8 mph - N/A   Clear
5:52 AM 60.1 °F 57.0 °F 90% 29.96 in 10.0 mi NNW 5.8 mph - N/A   Clear
6:52 AM 60.1 °F 55.9 °F 86% 29.98 in 10.0 mi North 9.2 mph - N/A   Clear
7:52 AM 62.1 °F 55.9 °F 80% 30.00 in 10.0 mi North 8.1 mph - N/A   Clear
8:52 AM 64.0 °F 55.0 °F 73% 30.04 in 10.0 mi North 8.1 mph - N/A   Partly Cloudy
9:52 AM 66.0 °F 55.9 °F 70% 30.05 in 10.0 mi North 6.9 mph - N/A   Clear
10:52 AM 69.1 °F 55.0 °F 61% 30.07 in 10.0 mi North 10.4 mph - N/A   Partly Cloudy
11:52 AM 70.0 °F 53.1 °F 55% 30.07 in 10.0 mi North 10.4 mph - N/A   Mostly Cloudy
12:52 PM 71.1 °F 53.1 °F 53% 30.07 in 10.0 mi North 9.2 mph - N/A   Mostly Cloudy
1:52 PM 73.0 °F 54.0 °F 51% 30.05 in 10.0 mi North 9.2 mph - N/A   Scattered Clouds
2:52 PM 75.0 °F 53.1 °F 46% 30.05 in 10.0 mi NW 9.2 mph 17.3 mph N/A   Partly Cloudy
3:52 PM 75.9 °F 53.1 °F 45% 30.03 in 10.0 mi NNW 5.8 mph - N/A   Scattered Clouds
4:52 PM 75.9 °F 53.1 °F 45% 30.03 in 10.0 mi North 4.6 mph - N/A   Clear
5:52 PM 75.9 °F 53.1 °F 45% 30.04 in 10.0 mi NW 6.9 mph - N/A   Clear
6:52 PM 75.9 °F 51.1 °F 42% 30.03 in 10.0 mi Variable 4.6 mph - N/A   Partly Cloudy
7:52 PM 75.0 °F 48.9 °F 40% 30.03 in 10.0 mi NNW 4.6 mph - N/A   Clear
8:52 PM 66.9 °F 55.0 °F 66% 30.04 in 10.0 mi Calm Calm - N/A   Clear
9:52 PM 63.0 °F 54.0 °F 72% 30.04 in 10.0 mi Calm Calm - N/A   Clear
10:52 PM 60.1 °F 55.0 °F 83% 30.06 in 10.0 mi Calm Calm - N/A   Clear
11:52 PM 60.1 °F 55.0 °F 83% 30.06 in 10.0 mi Calm Calm - N/A   Clear